| time (UTC) | temp F | wind direction | speed MPH | gust MPH | rain 1hr in | rain 24hr in | rain mn in | humidity % | barometer mb |
| 20260506082337 | 45 | 337 | 0.0 | 1.0 | 0.00 | 0.00 | 0.00 | 48 | 1016.2 |
| 20260506081341 | 46 | 3 | 0.0 | 1.0 | 0.00 | 0.00 | 0.00 | 49 | 1016.1 |
| 20260506080350 | 46 | 359 | 0.0 | 0.0 | 0.00 | 0.00 | 0.00 | 48 | 1016.1 |
| 20260506073347 | 46 | 13 | 1.0 | 2.0 | 0.00 | 0.01 | 0.00 | 45 | 1015.8 |
| 20260506072333 | 47 | 12 | 1.0 | 3.0 | 0.00 | 0.01 | 0.00 | 44 | 1015.8 |
| 20260506071410 | 47 | 5 | 1.0 | 2.0 | 0.00 | 0.01 | 0.00 | 44 | 1015.7 |
| 20260506070330 | 47 | 15 | 1.0 | 2.0 | 0.00 | 0.01 | 0.00 | 44 | 1015.8 |
| 20260506062334 | 48 | 358 | 0.0 | 4.0 | 0.00 | 0.02 | 0.00 | 43 | 1015.8 |
| 20260506061336 | 48 | 356 | 0.0 | 4.0 | 0.00 | 0.02 | 0.00 | 44 | 1015.7 |
| 20260506060326 | 48 | 8 | 1.0 | 4.0 | 0.00 | 0.02 | 0.00 | 42 | 1015.7 |
| 20260506051327 | 49 | 26 | 1.0 | 2.0 | 0.00 | 0.02 | 0.00 | 42 | 1015.2 |
| 20260506050357 | 49 | 3 | 1.0 | 7.0 | 0.00 | 0.02 | 0.00 | 40 | 1015.1 |
| 20260506044408 | 50 | 354 | 1.0 | 2.0 | 0.00 | 0.02 | 0.02 | 41 | 1014.8 |
| 20260506043323 | 50 | 5 | 0.0 | 2.0 | 0.00 | 0.02 | 0.02 | 41 | 1014.9 |
| 20260506042334 | 50 | 23 | 0.0 | 3.0 | 0.00 | 0.02 | 0.02 | 40 | 1014.9 |
| 20260506041331 | 50 | 12 | 1.0 | 3.0 | 0.00 | 0.02 | 0.02 | 39 | 1014.7 |
| 20260506040325 | 50 | 16 | 2.0 | 4.0 | 0.00 | 0.02 | 0.02 | 39 | 1014.6 |
| 20260506035339 | 51 | 8 | 1.0 | 2.0 | 0.00 | 0.02 | 0.02 | 39 | 1014.6 |
| 20260506034344 | 51 | 10 | 2.0 | 5.0 | 0.00 | 0.02 | 0.02 | 37 | 1014.7 |
| 20260506033334 | 51 | 14 | 3.0 | 6.0 | 0.00 | 0.02 | 0.02 | 37 | 1014.6 |
| 20260506032328 | 51 | 349 | 2.0 | 5.0 | 0.00 | 0.02 | 0.02 | 38 | 1014.4 |
| 20260506031359 | 51 | 339 | 2.0 | 4.0 | 0.00 | 0.02 | 0.02 | 37 | 1014.2 |
| 20260506030327 | 51 | 339 | 3.0 | 5.0 | 0.00 | 0.02 | 0.02 | 37 | 1014.1 |
| 20260506025356 | 52 | 6 | 2.0 | 5.0 | 0.00 | 0.02 | 0.02 | 37 | 1014.0 |
| 20260506024336 | 52 | 15 | 1.0 | 8.0 | 0.00 | 0.02 | 0.02 | 37 | 1013.9 |
| 20260506023346 | 52 | 12 | 2.0 | 6.0 | 0.00 | 0.02 | 0.02 | 37 | 1013.7 |
| 20260506022331 | 52 | 328 | 2.0 | 4.0 | 0.00 | 0.02 | 0.02 | 37 | 1013.7 |
| 20260506021337 | 52 | 359 | 1.0 | 7.0 | 0.00 | 0.02 | 0.02 | 36 | 1013.5 |
| 20260506020349 | 52 | 356 | 3.0 | 7.0 | 0.00 | 0.02 | 0.02 | 36 | 1013.4 |
| 20260506015355 | 52 | 359 | 2.0 | 8.0 | 0.00 | 0.02 | 0.02 | 36 | 1013.2 |
| 20260506014341 | 53 | 354 | 3.0 | 7.0 | 0.00 | 0.02 | 0.02 | 36 | 1013.1 |
| 20260506013351 | 53 | 336 | 3.0 | 6.0 | 0.00 | 0.02 | 0.02 | 37 | 1013.0 |
| 20260506012336 | 53 | 327 | 3.0 | 8.0 | 0.00 | 0.02 | 0.02 | 36 | 1012.9 |
| 20260506011340 | 53 | 346 | 6.0 | 10.0 | 0.00 | 0.02 | 0.02 | 35 | 1012.8 |
| 20260506010330 | 53 | 11 | 3.0 | 9.0 | 0.00 | 0.02 | 0.02 | 35 | 1012.6 |
| 20260506005341 | 54 | 21 | 3.0 | 10.0 | 0.00 | 0.02 | 0.02 | 35 | 1012.6 |
| 20260506004327 | 54 | 5 | 4.0 | 9.0 | 0.00 | 0.02 | 0.02 | 35 | 1012.6 |
| 20260506003338 | 54 | 344 | 4.0 | 11.0 | 0.00 | 0.02 | 0.02 | 35 | 1012.4 |
| 20260506002330 | 54 | 340 | 3.0 | 9.0 | 0.00 | 0.02 | 0.02 | 35 | 1012.4 |
| 20260506001349 | 54 | 19 | 2.0 | 7.0 | 0.00 | 0.02 | 0.02 | 36 | 1012.4 |
| 20260506000336 | 54 | 358 | 5.0 | 12.0 | 0.00 | 0.02 | 0.02 | 35 | 1012.4 |
| 20260505235327 | 55 | 35 | 4.0 | 11.0 | 0.00 | 0.02 | 0.02 | 35 | 1012.3 |
| 20260505234349 | 55 | 347 | 4.0 | 11.0 | 0.00 | 0.02 | 0.02 | 35 | 1012.2 |
| 20260505233354 | 55 | 3 | 4.0 | 10.0 | 0.00 | 0.02 | 0.02 | 35 | 1012.1 |
| 20260505232326 | 56 | 18 | 4.0 | 12.0 | 0.00 | 0.02 | 0.02 | 35 | 1012.0 |
| 20260505231330 | 56 | 340 | 3.0 | 9.0 | 0.00 | 0.02 | 0.02 | 35 | 1011.9 |
| 20260505230340 | 56 | 14 | 2.0 | 9.0 | 0.00 | 0.02 | 0.02 | 34 | 1011.9 |
| 20260505225329 | 56 | 342 | 3.0 | 10.0 | 0.00 | 0.02 | 0.02 | 34 | 1011.9 |
| 20260505224350 | 57 | 7 | 3.0 | 7.0 | 0.00 | 0.02 | 0.02 | 33 | 1011.9 |
| 20260505223338 | 57 | 338 | 2.0 | 12.0 | 0.00 | 0.02 | 0.02 | 34 | 1011.9 |
| 20260505222325 | 57 | 10 | 4.0 | 7.0 | 0.00 | 0.02 | 0.02 | 35 | 1011.8 |
| 20260505221330 | 57 | 9 | 2.0 | 8.0 | 0.00 | 0.02 | 0.02 | 35 | 1011.8 |
| 20260505220343 | 57 | 137 | 2.0 | 9.0 | 0.00 | 0.02 | 0.02 | 36 | 1011.8 |
| 20260505215349 | 57 | 3 | 2.0 | 8.0 | 0.00 | 0.02 | 0.02 | 36 | 1011.7 |
| 20260505214336 | 57 | 20 | 5.0 | 10.0 | 0.00 | 0.02 | 0.02 | 35 | 1011.9 |
| 20260505213327 | 57 | 5 | 2.0 | 8.0 | 0.00 | 0.02 | 0.02 | 37 | 1012.0 |
| 20260505212342 | 57 | 55 | 3.0 | 10.0 | 0.00 | 0.02 | 0.02 | 37 | 1012.1 |
| 20260505211346 | 57 | 3 | 2.0 | 9.0 | 0.00 | 0.02 | 0.02 | 37 | 1012.2 |
| 20260505210351 | 57 | 349 | 3.0 | 8.0 | 0.00 | 0.02 | 0.02 | 37 | 1012.3 |
| 20260505205331 | 57 | 358 | 3.0 | 7.0 | 0.00 | 0.02 | 0.02 | 41 | 1012.3 |
| 20260505204334 | 58 | 337 | 5.0 | 9.0 | 0.00 | 0.02 | 0.02 | 37 | 1012.3 |
| 20260505203404 | 58 | 347 | 4.0 | 8.0 | 0.00 | 0.02 | 0.02 | 35 | 1012.3 |
| 20260505202328 | 59 | 46 | 5.0 | 12.0 | 0.00 | 0.02 | 0.02 | 37 | 1012.5 |
| 20260505201335 | 59 | 166 | 2.0 | 6.0 | 0.00 | 0.02 | 0.02 | 34 | 1012.5 |
| 20260505200407 | 59 | 187 | 2.0 | 8.0 | 0.00 | 0.02 | 0.02 | 37 | 1012.6 |
| 20260505195335 | 58 | 25 | 5.0 | 9.0 | 0.00 | 0.02 | 0.02 | 36 | 1012.7 |
| 20260505194326 | 59 | 318 | 4.0 | 10.0 | 0.00 | 0.02 | 0.02 | 34 | 1012.7 |
| 20260505193338 | 58 | 45 | 3.0 | 6.0 | 0.00 | 0.02 | 0.02 | 37 | 1012.7 |
| 20260505192327 | 58 | 328 | 2.0 | 6.0 | 0.00 | 0.02 | 0.02 | 37 | 1012.8 |
| 20260505191400 | 57 | 90 | 2.0 | 9.0 | 0.00 | 0.02 | 0.02 | 38 | 1012.9 |
| 20260505190346 | 57 | 358 | 4.0 | 8.0 | 0.00 | 0.02 | 0.02 | 38 | 1013.0 |
| 20260505185331 | 56 | 284 | 4.0 | 10.0 | 0.00 | 0.02 | 0.02 | 39 | 1013.1 |
| 20260505184446 | 56 | 15 | 4.0 | 9.0 | 0.00 | 0.02 | 0.02 | 39 | 1013.1 |
| 20260505183327 | 56 | 348 | 3.0 | 7.0 | 0.00 | 0.02 | 0.02 | 40 | 1013.2 |
| 20260505182340 | 56 | 341 | 0.0 | 7.0 | 0.00 | 0.02 | 0.02 | 42 | 1013.3 |
| 20260505181345 | 56 | 53 | 2.0 | 7.0 | 0.00 | 0.02 | 0.02 | 44 | 1013.2 |
| 20260505180326 | 55 | 322 | 3.0 | 9.0 | 0.00 | 0.02 | 0.02 | 42 | 1013.4 |
| 20260505175332 | 56 | 352 | 3.0 | 7.0 | 0.00 | 0.02 | 0.02 | 44 | 1013.5 |
| 20260505174336 | 55 | 16 | 2.0 | 6.0 | 0.00 | 0.02 | 0.02 | 45 | 1013.4 |
| 20260505173323 | 55 | 328 | 5.0 | 8.0 | 0.00 | 0.02 | 0.02 | 48 | 1013.5 |
| 20260505172338 | 54 | 7 | 4.0 | 6.0 | 0.00 | 0.02 | 0.02 | 44 | 1013.9 |
| 20260505171343 | 54 | 276 | 1.0 | 7.0 | 0.00 | 0.02 | 0.02 | 46 | 1013.8 |
| 20260505170336 | 54 | 339 | 2.0 | 5.0 | 0.00 | 0.02 | 0.02 | 47 | 1013.9 |
| 20260505165328 | 53 | 11 | 1.0 | 3.0 | 0.00 | 0.02 | 0.02 | 48 | 1013.9 |
| 20260505164347 | 53 | 29 | 3.0 | 6.0 | 0.00 | 0.02 | 0.02 | 52 | 1013.9 |
| 20260505163332 | 52 | 26 | 2.0 | 5.0 | 0.00 | 0.02 | 0.02 | 56 | 1013.9 |
| 20260505162337 | 51 | 345 | 2.0 | 5.0 | 0.00 | 0.02 | 0.02 | 56 | 1013.6 |
| 20260505161340 | 51 | 330 | 1.0 | 4.0 | 0.00 | 0.02 | 0.02 | 59 | 1013.5 |
| 20260505160332 | 50 | 327 | 2.0 | 6.0 | 0.00 | 0.02 | 0.02 | 58 | 1013.3 |
| 20260505153327 | 49 | 33 | 3.0 | 5.0 | 0.00 | 0.02 | 0.02 | 60 | 1013.3 |
| 20260505152339 | 49 | 337 | 2.0 | 6.0 | 0.00 | 0.02 | 0.02 | 59 | 1013.3 |
| 20260505151324 | 50 | 334 | 3.0 | 6.0 | 0.00 | 0.02 | 0.02 | 58 | 1013.1 |
| 20260505150336 | 50 | 19 | 1.0 | 5.0 | 0.00 | 0.02 | 0.02 | 57 | 1012.9 |
| 20260505140323 | 50 | 353 | 0.0 | 2.0 | 0.00 | 0.02 | 0.02 | 57 | 1012.7 |
| 20260505124342 | 49 | 311 | 0.0 | 0.0 | 0.00 | 0.02 | 0.02 | 64 | 1011.5 |
| 20260505123327 | 49 | 334 | 0.0 | 1.0 | 0.00 | 0.02 | 0.02 | 66 | 1011.3 |
| 20260505122357 | 48 | 7 | 0.0 | 4.0 | 0.00 | 0.02 | 0.02 | 68 | 1011.0 |
| 20260505121324 | 48 | 12 | 0.0 | 0.0 | 0.00 | 0.02 | 0.02 | 71 | 1011.0 |
| 20260505120336 | 48 | 12 | 0.0 | 1.0 | 0.00 | 0.02 | 0.02 | 71 | 1010.8 |
| 20260505115330 | 48 | 12 | 0.0 | 0.0 | 0.00 | 0.02 | 0.02 | 69 | 1010.5 |
| 20260505114352 | 48 | 12 | 0.0 | 1.0 | 0.00 | 0.02 | 0.02 | 69 | 1010.3 |
| 20260505113330 | 48 | 11 | 0.0 | 2.0 | 0.00 | 0.02 | 0.02 | 70 | 1010.2 |
| 20260505112323 | 48 | 10 | 0.0 | 0.0 | 0.00 | 0.02 | 0.02 | 70 | 1010.1 |
| 20260505111326 | 48 | 10 | 0.0 | 1.0 | 0.00 | 0.02 | 0.02 | 70 | 1010.3 |
| 20260505110338 | 47 | 10 | 0.0 | 1.0 | 0.00 | 0.02 | 0.02 | 71 | 1010.4 |
| 20260505101334 | 48 | 125 | 0.0 | 0.0 | 0.00 | 0.02 | 0.02 | 79 | 1010.6 |
| 20260505100342 | 48 | 125 | 0.0 | 0.0 | 0.00 | 0.02 | 0.02 | 79 | 1010.6 |
| 20260505095328 | 48 | 125 | 0.0 | 0.0 | 0.00 | 0.02 | 0.02 | 79 | 1010.6 |
| 20260505094332 | 48 | 125 | 0.0 | 0.0 | 0.00 | 0.02 | 0.02 | 79 | 1010.5 |
| 20260505093343 | 48 | 125 | 0.0 | 0.0 | 0.00 | 0.02 | 0.02 | 80 | 1010.4 |
| 20260505092349 | 48 | 125 | 0.0 | 0.0 | 0.00 | 0.02 | 0.02 | 79 | 1010.2 |
| 20260505091340 | 48 | 228 | 0.0 | 0.0 | 0.00 | 0.02 | 0.02 | 81 | 1009.9 |
| 20260505090327 | 48 | 228 | 0.0 | 0.0 | 0.00 | 0.02 | 0.02 | 81 | 1009.7 |
| 20260505085401 | 49 | 228 | 0.0 | 0.0 | 0.00 | 0.02 | 0.02 | 80 | 1009.6 |
| 20260505084343 | 49 | 220 | 0.0 | 0.0 | 0.00 | 0.02 | 0.02 | 81 | 1009.5 |
| 20260505083353 | 49 | 156 | 0.0 | 1.0 | 0.01 | 0.02 | 0.02 | 81 | 1009.7 |